Aérodrome :
LOGIN :

S'inscrire | Disclaimer

   EN    FR    IT 

 










Légende :    VFR   VFR Marginal   IFR   IFR Intensif   IFR Très Intensif
Visi : 
Plafond : 
>= 8 km
>= 3000ft
5 à 8 km
1000 à 3000 ft
1500m à 5 km
500 à 1000 ft
800 à 1500m
200 à 500 ft
< 800m
< 200 ft
Symboles :   Orages  Brouillard  Fortes neiges  Fortes précipitations  Vent > 20 kt
SIGMETs :   Divers  Orages  Givrage  Turbulence  Onde Orograph.  Cendres Volcan.






- Altitude de l'aérodrome : 522 ft
- Code IATA : CRV


LIBC - Santa Anna - Crotone

DERNIER METAR :
  • 230750Z 35016KT CAVOK 31/16 Q1011

METARs EXPIRÉS :
  • 230650Z 36015KT 330V030 CAVOK 30/16 Q1011
  • 230550Z 36012KT CAVOK 29/15 Q1011
  • 230500Z 35009KT CAVOK 28/14 Q1011

TAF TAF LIBC
Valide du 23 à 06h jusqu'au 24 à 06h UTC


230500Z 2306/2406 36015G25KT 9999 FEW030



MET'MAP, la Météo Aéronautique d'un coup d'oeil ! - Copyright ORBIFLY Décembre 2007 - Disclaimer

ORBIFLY MET'MAP TEAM :

Programmation & Développement : Alexandra Zaïnal
Sur une idée originale de : Baudouin d'Aumeries
Soutien technique & logistique : Manuel Goepfert
Assistance : Marc-Olivier Méhu




SOURCES & CREDITS :

   NOAA